Theta_e
324 323 323 322 321 318 316 314 312 312 311 311 312 312 312 313 313 316 322 323 331 340 353 354 352 353 353 354 355 356 366 347 349 349 347 346 344 341 341 344 344 342 342 342 340
324 324 324 324 322 319 317 315 313 312 311 312 312 312 312 312 323 320 317 314 328 337 354 353 355 356 358 355 355 357 352 346 347 348 348 347 346 344 343 344 344 343 341 341 341
324 325 325 324 322 320 318 316 314 312 312 313 312 311 311 312 330 324 313 322 326 341 352 353 353 356 356 354 356 352 347 346 346 347 347 347 347 346 343 344 344 343 342 342 342
325 325 324 324 323 322 320 318 315 312 312 313 311 309 310 327 332 325 319 324 338 347 346 351 352 356 354 355 353 351 348 350 347 347 347 348 348 349 341 343 343 342 343 346 346
325 324 323 323 322 322 321 318 314 312 313 312 311 309 320 331 330 320 322 327 334 337 347 349 352 353 355 353 353 352 351 350 347 347 348 348 349 349 344 342 344 344 344 346 346
325 324 323 323 323 322 321 316 312 312 313 313 311 309 327 329 327 325 331 334 339 341 344 344 346 346 354 354 358 352 351 351 348 348 348 350 350 350 346 343 345 346 345 346 347
325 326 325 322 322 322 317 313 312 313 313 313 312 317 328 329 328 327 329 330 328 332 334 340 338 339 352 354 353 352 352 351 349 350 350 350 351 353 348 344 345 346 346 345 346
326 326 325 322 322 317 314 313 313 314 313 313 314 324 329 327 327 325 324 323 323 325 329 338 334 337 352 352 352 354 353 357 352 351 350 351 358 353 349 347 345 343 344 344 346
326 325 325 323 321 316 316 314 314 314 313 317 325 328 327 323 326 324 322 322 323 325 332 332 332 340 348 354 357 354 358 359 360 351 352 352 361 353 350 349 347 343 343 344 346
323 323 325 324 318 318 317 318 315 321 317 324 325 328 326 325 325 324 322 321 324 328 336 333 333 338 344 352 367 361 359 355 359 355 352 353 356 353 351 351 348 345 344 344 345
321 321 323 324 317 319 322 324 329 329 324 327 324 327 325 323 324 324 323 322 324 330 337 335 335 336 338 343 351 350 352 354 354 353 352 355 355 354 352 352 350 347 345 344 345
320 320 322 323 317 318 319 328 325 325 326 323 324 325 324 322 324 326 323 324 325 330 335 332 332 335 338 339 344 347 348 351 349 350 350 354 354 355 353 353 352 350 347 345 342
319 320 322 321 318 319 325 324 322 323 328 324 323 324 325 324 324 327 326 326 325 331 333 332 331 332 333 338 340 340 341 343 342 347 346 349 350 355 353 352 352 351 349 348 344
319 320 322 320 320 325 325 323 323 323 331 326 323 324 325 324 324 326 326 326 326 329 332 329 330 330 332 335 339 340 340 342 339 344 350 351 349 353 354 354 353 352 352 350 347
319 320 322 321 327 325 325 323 322 324 338 326 324 325 326 326 327 325 326 327 326 326 329 329 328 329 327 329 332 335 336 339 340 342 341 342 341 349 350 348 352 352 351 351 350
318 320 322 326 326 326 323 324 322 328 333 327 325 325 326 325 326 327 326 326 326 326 326 328 326 326 326 326 327 328 332 336 339 341 343 342 341 342 354 354 353 352 351 352 351
318 320 322 323 330 324 324 326 328 331 330 328 326 325 325 326 325 327 327 326 326 326 327 326 325 325 324 324 325 325 328 335 343 344 342 340 342 341 349 349 350 353 353 354 352
318 323 327 324 327 323 325 329 332 332 330 327 325 325 326 327 325 325 328 329 327 326 328 327 327 325 324 324 325 325 326 330 341 342 341 342 345 344 351 350 352 353 355 357 353
318 327 329 327 324 324 329 332 334 333 329 327 325 325 325 326 326 325 326 328 328 327 328 328 329 327 326 325 325 326 326 327 329 331 334 341 345 348 348 348 349 353 354 353 348
322 328 330 325 323 324 329 330 331 327 328 328 328 326 327 326 325 326 327 327 327 328 327 327 328 327 326 325 325 325 328 328 327 330 332 332 335 340 349 347 351 349 352 352 352
324 329 327 323 322 326 330 331 331 328 327 327 328 330 329 329 327 326 327 327 326 327 327 326 326 328 325 324 325 325 326 327 329 329 330 332 333 335 347 345 350 351 355 355 353
325 328 328 324 327 328 330 331 320 326 325 327 328 330 330 329 329 328 327 327 326 326 326 326 327 327 327 326 326 326 327 326 329 331 330 331 335 341 346 349 346 353 357 357 356
324 324 326 326 329 330 330 328 327 326 326 326 327 329 329 330 330 328 328 327 325 324 326 326 325 326 328 327 326 325 327 328 328 328 331 331 332 346 347 350 349 353 356 358 359
323 325 329 330 328 328 330 331 331 328 327 328 328 329 328 329 330 330 328 327 324 324 329 327 325 326 327 330 328 327 326 326 327 329 330 331 335 350 349 349 353 354 356 358 359
321 325 329 329 329 331 330 330 330 331 330 329 331 331 332 331 330 330 328 328 324 329 322 323 326 326 326 326 326 327 327 326 326 327 328 328 329 330 342 345 350 354 358 359 360
319 322 328 328 325 327 327 329 330 330 330 331 332 331 332 333 332 331 331 330 328 326 325 324 326 325 326 326 326 325 325 326 326 327 327 327 328 329 333 343 348 355 358 359 357
317 319 322 319 320 323 326 327 327 329 329 330 330 330 332 331 331 331 331 330 330 328 328 328 327 328 328 327 328 329 327 325 325 326 327 327 328 329 329 338 347 355 356 356 354
Wind_Speed
17 16 16 14 12 11 10 12 11 10 8 6 7 7 8 6 5 5 7 5 3 13 11 6 7 9 5 9 9 8 6 10 20 15 14 11 17 17 14 10 4 8 17 22 20
16 16 15 15 13 11 11 11 11 10 6 6 6 6 6 6 7 12 1 5 8 14 9 10 7 9 7 8 7 8 4 13 13 6 14 11 13 12 13 13 14 18 20 21 19
16 16 16 16 14 13 11 11 11 9 6 5 6 5 5 5 10 6 4 8 13 14 10 6 6 9 8 10 6 9 8 12 8 11 12 11 10 4 14 14 15 18 17 18 18
16 17 17 16 16 13 11 11 10 7 5 5 6 6 6 5 1 6 10 10 14 9 8 9 9 14 2 8 3 2 4 6 9 7 11 12 13 12 13 16 16 17 17 15 14
17 18 17 18 17 14 13 12 8 5 4 3 5 5 3 9 6 8 12 16 10 9 12 7 11 9 4 5 10 3 5 3 8 6 13 8 13 12 14 16 17 17 16 14 13
19 20 21 20 17 14 14 9 5 3 3 3 4 4 7 9 6 11 14 12 11 10 8 8 5 7 8 6 13 4 3 5 11 9 8 11 13 13 13 15 17 15 15 13 13
19 22 22 20 18 16 10 5 2 3 3 3 4 3 10 6 6 12 13 13 9 10 7 5 6 11 3 5 4 5 6 7 11 11 9 6 10 15 14 14 15 14 13 11 12
22 25 23 21 19 11 5 1 2 3 3 2 4 5 3 4 6 11 13 9 9 9 9 3 9 12 10 2 4 14 13 1 13 7 6 9 7 14 16 14 14 14 12 11 12
23 26 23 22 17 8 2 3 3 4 3 2 5 8 7 7 10 11 13 13 12 10 8 6 11 13 6 11 5 4 5 12 12 4 7 4 14 13 14 14 13 13 13 12 13
25 27 24 21 12 4 5 4 5 4 2 4 9 7 8 12 11 10 11 10 12 10 10 11 8 10 11 10 1 7 9 6 7 8 7 9 9 12 12 13 13 14 14 13 14
29 29 25 18 6 2 3 2 6 6 13 7 12 3 10 10 11 11 12 14 14 12 15 13 11 12 14 7 18 7 10 7 8 18 4 9 9 11 12 12 13 14 14 14 14
29 30 27 15 2 2 6 6 7 7 8 6 4 4 4 14 9 11 16 13 13 15 16 9 13 13 4 1 8 12 9 8 5 1 7 5 4 12 15 12 13 15 15 15 14
31 31 26 11 2 4 9 5 4 5 8 10 11 10 11 11 10 15 16 16 14 18 18 14 7 5 6 9 10 10 11 6 6 4 9 6 11 16 15 14 12 12 15 15 14
31 31 26 7 3 1 5 1 5 3 6 14 11 7 8 10 9 15 20 11 12 17 15 14 12 7 9 13 11 14 12 7 7 9 1 6 2 13 16 14 16 14 14 16 17
32 32 24 7 8 8 4 4 4 5 5 12 15 10 13 15 13 13 17 12 13 13 12 15 15 11 14 15 14 14 5 8 12 11 11 8 6 10 9 9 14 14 15 14 18
30 31 19 3 6 5 3 4 6 7 4 10 11 12 16 15 10 14 15 13 12 13 15 18 6 10 16 15 13 10 11 12 12 12 12 11 6 1 11 8 8 7 10 12 16
29 25 9 7 5 3 6 7 7 8 10 11 13 16 18 13 13 13 17 18 12 12 15 17 19 13 13 13 16 14 14 11 11 11 11 8 9 2 9 9 6 3 2 5 12
29 17 8 8 7 4 8 8 9 5 10 3 7 14 17 14 14 15 16 17 20 16 13 13 16 21 14 18 15 14 17 13 11 12 11 12 7 9 17 14 10 5 5 7 8
27 8 6 2 5 6 8 11 8 7 2 7 9 13 16 16 9 15 19 18 19 20 15 9 15 5 20 15 18 16 15 20 20 19 13 6 8 12 13 12 6 9 8 3 4
20 13 6 2 6 10 8 17 13 3 6 6 14 15 16 18 16 15 15 15 19 19 16 8 9 12 14 10 18 19 11 11 11 17 17 15 12 4 16 13 10 7 5 5 2
10 6 8 4 6 7 11 15 14 5 9 11 15 17 15 15 19 18 11 15 9 17 16 19 9 10 10 13 17 13 15 13 17 13 14 12 10 4 18 15 14 9 7 5 5
8 6 6 5 8 8 13 18 4 11 10 15 10 17 16 15 18 20 21 16 14 17 19 18 10 14 15 14 19 19 18 20 13 15 13 12 4 6 13 13 6 13 6 6 6
6 8 7 9 8 11 15 16 12 13 16 12 16 14 17 17 17 17 19 16 12 13 15 16 11 13 14 14 10 12 16 16 20 18 17 13 11 13 11 12 5 11 9 7 7
5 5 6 7 11 16 16 15 14 13 15 16 15 14 16 17 17 16 17 18 10 14 7 12 19 15 14 16 15 22 17 19 19 15 15 16 11 14 13 14 12 9 8 7 7
5 5 5 7 5 7 11 13 16 14 16 11 16 16 17 17 19 20 18 16 14 10 10 15 18 19 20 20 17 11 17 21 21 18 19 15 16 14 16 12 12 12 11 9 9
5 7 5 10 14 14 14 16 16 16 19 16 16 16 18 19 20 18 20 19 20 18 16 20 19 20 23 23 20 22 20 16 17 20 19 18 19 15 7 11 11 11 13 12 10
8 12 6 8 13 13 13 16 17 15 13 18 19 15 14 11 12 14 16 13 16 16 19 20 17 18 22 21 22 25 21 20 19 19 16 17 12 13 9 8 12 11 14 14 13
Wind_Direction
358 358 354 352 344 338 333 330 328 328 323 317 317 320 320 313 300 234 233 96 176 160 165 178 211 209 225 276 257 246 267 78 106 100 112 115 89 90 129 105 81 107 138 123 142
358 356 354 350 344 338 333 329 324 325 315 313 315 321 321 300 269 224 146 221 192 174 193 203 192 192 230 260 257 194 291 65 69 100 96 86 104 133 118 111 106 99 109 134 146
0 358 354 349 344 334 329 326 322 317 302 300 304 312 307 306 251 107 163 175 163 176 237 278 290 261 236 227 257 3 96 115 117 88 113 111 111 87 121 116 129 132 137 145 152
2 357 353 349 342 330 325 320 316 306 294 297 308 307 296 250 180 104 148 162 160 194 249 241 241 258 216 201 193 175 78 39 93 141 121 99 98 63 66 112 128 135 143 145 159
0 355 351 345 338 330 322 313 307 288 275 279 301 298 295 217 73 148 146 156 177 213 223 244 261 305 293 142 194 241 98 112 125 114 103 142 86 93 101 115 130 138 148 158 152
360 356 348 342 338 329 319 309 296 250 242 262 292 281 247 243 111 151 156 173 195 206 215 241 336 331 294 225 63 154 315 161 154 134 142 138 127 118 116 130 133 149 157 164 135
359 353 348 345 340 329 324 310 243 207 213 255 284 269 259 65 145 163 170 186 196 222 232 247 294 279 305 199 275 146 252 172 138 162 156 183 160 113 136 138 145 160 165 155 154
0 355 353 348 341 338 333 298 179 178 185 247 267 241 64 135 163 177 186 188 207 225 266 266 280 278 274 139 226 244 202 230 114 194 149 206 234 137 152 149 157 159 164 165 160
358 356 354 350 347 353 32 122 136 153 172 187 235 226 134 147 191 188 195 205 202 214 229 271 262 260 190 209 164 50 88 69 300 215 141 193 216 150 171 156 162 163 161 175 167
357 356 353 350 352 35 111 132 140 125 182 235 271 250 168 198 166 173 195 219 196 201 217 232 235 231 232 219 180 302 233 91 266 275 207 181 116 147 184 168 165 168 169 173 170
357 354 353 349 346 129 131 204 204 188 206 312 176 317 143 125 159 192 183 193 199 205 220 205 229 225 213 198 168 217 232 231 157 255 269 172 149 177 177 198 175 169 178 179 177
356 353 352 346 297 270 250 263 27 337 225 205 248 269 167 174 178 172 179 192 202 207 221 190 237 248 33 45 235 231 267 155 262 130 293 229 211 176 171 205 184 187 176 183 185
353 352 351 344 216 239 271 29 327 308 253 159 197 203 183 206 200 176 199 216 200 214 208 234 198 165 210 209 240 243 268 121 309 144 248 268 238 161 177 176 213 206 180 188 188
351 349 348 343 238 206 240 305 303 266 263 150 192 204 182 215 218 177 203 202 211 222 213 233 251 214 223 243 230 264 182 278 258 263 355 256 295 215 171 184 184 204 201 188 185
347 344 342 304 309 237 47 308 289 241 264 150 156 121 171 207 119 182 199 212 235 221 232 221 237 205 236 236 233 258 348 252 252 264 277 200 238 134 171 206 186 197 200 206 194
343 340 342 323 238 276 243 288 251 232 233 158 153 191 184 214 197 146 192 234 238 234 223 252 204 250 244 237 249 273 255 252 252 258 259 232 249 307 100 109 108 157 201 206 213
338 333 324 284 355 287 248 240 233 250 132 158 181 185 197 190 187 180 195 201 206 209 218 219 230 224 236 241 226 225 236 233 223 222 241 234 199 304 149 106 70 77 262 247 240
334 320 294 249 272 256 235 233 249 321 181 98 197 190 205 189 203 198 200 213 219 227 260 215 212 209 194 230 212 222 231 243 229 244 244 163 212 223 99 108 116 101 72 333 221
336 291 248 182 241 227 240 227 237 261 278 193 203 207 206 212 227 199 219 218 219 223 241 247 235 145 203 213 238 215 221 254 270 279 286 177 230 143 152 148 151 129 140 28 38
327 286 231 243 200 223 239 248 279 308 307 268 222 211 220 207 199 215 205 224 232 209 229 260 268 177 200 231 223 240 242 230 239 256 264 257 244 306 157 171 137 155 111 135 120
291 280 107 170 208 230 239 247 247 225 247 255 251 255 230 237 209 230 222 221 225 216 206 239 230 187 169 207 225 209 239 244 266 225 242 250 260 306 167 156 157 135 125 152 188
293 276 117 197 233 234 244 251 301 278 221 258 270 279 260 243 257 213 240 233 189 231 204 220 228 239 207 224 220 247 219 226 241 232 272 283 297 65 80 113 161 122 137 131 137
302 289 168 238 251 241 242 251 269 262 263 238 243 243 256 260 255 251 246 242 165 227 217 213 228 245 239 220 191 239 239 254 230 244 251 244 243 121 121 125 125 137 145 146 141
286 292 193 202 261 279 287 286 256 217 264 274 267 266 258 253 255 248 247 240 176 224 41 256 236 234 244 221 218 203 225 241 244 248 244 235 225 156 172 167 161 152 158 150 143
249 288 22 289 257 290 279 276 277 274 240 241 265 249 262 252 251 247 244 261 184 191 230 232 242 243 253 267 274 261 219 215 237 241 251 252 244 247 195 190 164 151 153 158 145
298 321 339 280 281 280 266 262 267 264 265 267 234 258 267 247 261 261 253 232 250 203 220 233 235 247 254 257 256 253 252 235 242 229 240 253 262 276 120 144 161 162 168 171 159
288 277 270 280 272 265 260 266 268 258 265 274 280 273 274 309 330 316 308 317 294 267 214 229 238 236 245 243 248 251 240 240 244 247 226 243 243 246 221 169 173 181 190 175 164